Showing default

MALLIGYONG-1, 58400

Orbit data source: Space-Track

MALLIGYONG-1, 58400 is a payload satellite owned by Choson (KP) in SSO that was launched on Tue, 21 Nov 2023 UTC via a CHEONLIMA-1 launch vehicle from the Yunsong, Dprk (YUN). Payload-class satellites include a variety of spacecraft equipped with specific instruments for various scientific and technological missions. These include communications satellites like Starlink; space stations such as the ISS; scientific satellites like the Hubble; Earth observation satellites from companies like Planet Labs, Umbra, and HawkEye 360; GPS; miniature CubeSats for education and research; and military/defense satellites.

Loading next visibility...
Identifier
58400, 2023-179A
Orbit
SSO
Country
Flag of UnknownUnknown / NKOR
Related business
Manufacturer
Choson
Mission
Operational Defense Imaging
Bus & Motor
TD SATELLITE, Unknown motor
Mass
~200 kg wet, ~200 kg dry
Launch date (UTC)
2023-11-21 (2 years ago)
Launch vehicle
CHEONLIMA-1
Launch site
Yunsong, Dprk (YUN)
Object type
Payload
Rocket body
Debris
Shape & HBR
Box, 0.6 m
Radar Cross Section
1.280 m², Medium (>0.1 m² and < 1m²)

Expand to show TLE details & history
Last TLE update: 6 hours ago

TLE from 6 hours ago
0 MALLIGYONG-1
1 58400U 23179A   25295.86245814  .00004970  00000-0  22593-3 0  9994
2 58400  97.3343 178.8871 0010079 152.3827 207.7946 15.21151470106664
Epoch: 2025-10-22T20:41Z
TLE epoch observation values (Epoch: 2025-10-22T20:41:56.383Z)
Latitude
-0.00004°
Longitude
-163.1278°
Altitude
511.598 km
Speed
7.605 km/s
True Right ascension
11h 55m 32s
True Declination
0° 00' 00"
Sunlit
Object was in daylight at epoch
Visualization orbit readout
Latitude
Unknown
Longitude
Unknown
Altitude
Unknown
Speed
Unknown
Apparent Right ascension
Unknown
Apparent Declination
Unknown
Sunlit
N/A
Visualization observer readout
Local Sidereal Time
22:03:10
Azimuth
Unknown
Elevation
Unknown
Doppler factor
Unknown
Orbital elements
Apogee altitude
506.259 km
Perigee altitude
492.396 km
Semi-major axis
6,877.464 km
Eccentricity
0.00101
Inclination
97.3343°
RAAN
178.8871°
Arg. of periapsis
152.3827°
True anomaly
207.7408°
Mean anomaly
207.7946°
Eccentric anomaly
207.7677°
Mean motion
3.8054 °/min
Orbital period
94.6 mins
BSTAR
0.00022593
Loading maneuver chart data...
Computing Atmospheric mass density...
Loading historical data...
Loading historical data...
Loading historical data...
Loading historical data...
Loading historical data...
Loading historical data...
Loading historical data...
Other satellites on launch #179 in the year 2023 (2023-11-21 UTC)

Documentation

Showing up to 5 results
|